Regional Weather Roundup
Issued by NWS Sterling, VA

Home | Current Version | Previous Version | Text Only | Print | Product List | Glossary Off
Versions: 1 2 3 4 5 6 7 8 9 10 11 12 13 14 15 16 17 18 19 20 21 22 23 24 25 26 27 28 29 30 31 32 33 34 35 36 37 38 39 40 41 42 43 44 45 46 47 48 49 50

000
ASUS41 KLWX 132210
RWRLWX

REGIONAL WEATHER ROUNDUP
NATIONAL WEATHER SERVICE BALTIMORE MD/WASHINGTON DC
600 PM EDT SUN JUL 13 2014

Note: "FAIR" indicates few or no clouds below 12,000 feet
with no significant weather and/or obstructions to visibility.
 TC=TEMPERATURE CELSIUS

 * =Non NWS site. Station does not report precipitation (e.g. rain,
    snow, etc.), thunder, or fog.

DCZ001-MDZ009-015-VAZ040>042-051-053>054-132300-
WASHINGTON METRO

CITY           SKY/WX    TMP DP  RH WIND       PRES   REMARKS
WASHINGTON NAT PTSUNNY   91  71  51 S13       29.92F HX  97
DULLES         PTSUNNY   87  69  54 S12       29.92F HX  91
ANDREWS AFB    PTSUNNY   90  71  54 S13       29.93F HX  96
FT BELVOIR     PTSUNNY   91  71  52 VRB6      29.93F HX  97
QUANTICO       MOSUNNY   91  70  49 SW8       29.93F HX  96
COLLEGE PARK*  PTSUNNY   91  64  40 S10G18    29.92R HX  93
LEESBURG*      SUNNY     90  73  58 SW9       29.93F HX  98
MANASSAS*      MOSUNNY   88  70  55 SW8       29.93F HX  92
GAITHERSBURG*  SUNNY     90  70  51 SW9       29.96F HX  95

$$

MDZ006>007-011-014-132300-
BALTIMORE METRO

CITY           SKY/WX    TMP DP  RH WIND       PRES   REMARKS
BWI AIRPORT    PTSUNNY   90  70  51 S10       29.91S HX  95
MD SCIENCE CTR   N/A     92  69  47 MISG      29.90F HX  97
MARTIN STATE   PTSUNNY   88  77  70 S16       29.92F HX 100
ANNAPOLIS      PTSUNNY   85  75  72 S14G22    29.92F HX  93
FORT MEADE*    MOSUNNY   88  70  55 S7        29.94S HX  92

$$

MDZ012-015-019>023-132300-
MARYLAND EASTERN SHORE

CITY           SKY/WX    TMP DP  RH WIND       PRES   REMARKS
OCEAN CITY     MOSUNNY   79  74  84 S12G24    30.00F
SALISBURY      MOSUNNY   88  73  61 S12       29.97F HX  95
BAY BRIDGE AP*   N/A     86  72  62 S14       29.92F HX  92
CAMBRIDGE*     MOSUNNY   86  70  58 S13G20    29.94  HX  90
EASTON*        PTSUNNY   90  75  62 S14G20    29.97  HX 100

$$

MDZ017>025-132300-
SOUTHERN MARYLAND

CITY           SKY/WX    TMP DP  RH WIND       PRES   REMARKS
PATUXENT RIVER PTSUNNY   81  69  67 SW8G17    29.95F
ST INIGOES     LGT RAIN  81  72  74 S7        29.95S
LEONARDTOWN*   PTSUNNY   82  68  61 S8G18     29.97S

$$

MDZ003>005-132300-
NORTH CENTRAL MARYLAND

CITY           SKY/WX    TMP DP  RH WIND       PRES   REMARKS
FREDERICK*     SUNNY     90  73  58 S9        29.93F HX  98
HAGERSTOWN APT CLOUDY    85  70  60 S9        29.91F
WESTMINSTER*   MOSUNNY   90  72  55 S10       29.94F HX  96

$$

MDZ501>502-132300-
WESTERN MARYLAND

CITY           SKY/WX    TMP DP  RH WIND       PRES   REMARKS
OAKLAND*       CLOUDY    72  64  78 W16G28    30.07R
CUMBERLAND*    PTSUNNY   88  64  45 SW7       29.95S

$$

VAZ025>031-132300-
SHENANDOAH VALLEY

CITY           SKY/WX    TMP DP  RH WIND       PRES   REMARKS
WINCHESTER*    MOSUNNY   88  70  55 S8        29.93F HX  92
STAUNTON*      TSTM      74  69  83 W5G30     30.03R

$$

WVZ021-048>050-054>055-132300-
EASTERN WEST VIRGINIA PANHANDLE

CITY           SKY/WX    TMP DP  RH WIND       PRES   REMARKS
MARTINSBURG    MOSUNNY   88  69  53 S12       29.92F HX  92
PETERSBURG*    CLOUDY    86  65  48 SE5       29.94S

$$

VAZ036>039-050-132300-
CENTRAL FOOTHILLS

CITY           SKY/WX    TMP DP  RH WIND       PRES   REMARKS
CHARLOTTESVILL SUNNY     87  66  49 SW12      29.96F
ORANGE*        SUNNY     90  68  48 SE9       29.96F HX  93

$$

VAZ055>057-132300-
NORTH AND CENTRAL PIEDMONT

CITY           SKY/WX    TMP DP  RH WIND       PRES   REMARKS
FREDERICKSBRG* SUNNY     93  68  43 SW12      29.93S HX  97
STAFFORD*      MOSUNNY   90  69  49 SW8       29.97F HX  94

$$

NCZ024-NYZ072-PAZ021-071-VAZ022-071-132300-
OTHER REGIONAL OBSERVATIONS

CITY           SKY/WX    TMP DP  RH WIND       PRES   REMARKS
NEW YORK CITY  PTSUNNY   78  70  76 VRB6      29.93F
PHILADELPHIA   PTSUNNY   90  68  48 SW8       29.91F HX  94
PITTSBURGH     CLOUDY    76  70  82 SW9       29.93R
ROANOKE        PTSUNNY   86  71  60 S10       30.03S HX  91
RICHMOND       MOSUNNY   93  69  45 S17G26    29.97F HX  98
RALEIGH        MOSUNNY   92  66  42 S9G20     30.01F HX  94

$$

ANZ530>537-132300-
MARINE OBSERVATIONS

STATION/POSITION TIME  TEMP    WIND        PRES
                       AIR SEA DIR/SP/G
                 (UTC) (F)     (DEG/KT/KT) (MB)
THOMAS PT LIGHT  2200   83 80  170/ 16/ 17 1013.7F
BALT KEY BRIDGE  2200   88     180/ 13/ 16 1012.5R
COVE POINT       2200   85     180/ 19/ 20 1013.9S
LEWISETTA        2200   86 83  210/ 13/ 15 1014.4F
SOLOMONS ISLAND  2200      82                N/A
PINEY POINT      2200          190/  9/ 10   N/A

$$




USA.gov is the U.S. government's official web portal to all federal, state and local government web resources and services.